Tracking 28790 objects as of 19-Apr-2024
HD Live streaming from Space Station
objects crossing your sky now

FENGYUN 1C DEB

Track FENGYUN 1C DEB now!
10-day predictions


NORAD ID: 38159
Int'l Code: 1999-025ERG
Perigee: 852.9 km
Apogee: 935.3 km
Inclination: 99.4 °
Period: 102.7 minutes
Semi major axis: 7265 km
RCS: 0.003 m2 (small)
Launch date: May 10, 1999
Source: People's Republic of China (PRC)
Launch site: Taiyaun Space Center, China (TSC)

Note: This is SATELLITE DEBRIS
Your satellite tracking list
Your tracking list is empty




NASA's NSSDC Master Catalog

Two Line Element Set (TLE):
1 38159U 99025ERG 24106.36694664  .00000908  00000-0  61807-3 0  9990
2 38159  99.3869 335.9675 0056702 204.7163 155.1282 14.01984623746103
Source of the keplerian elements: AFSPC